TimeCDT,TemperatureF,Dew PointF,Humidity,Sea Level PressureIn,VisibilityMPH,Wind Direction,Wind SpeedMPH,Gust SpeedMPH,PrecipitationIn,Events,Conditions,WindDirDegrees,DateUTC
1:55 AM,51.8,42.8,71,30.04,10.0,Calm,Calm,-,N/A,,Clear,0,2012-10-15 06:55:00
2:15 AM,51.8,42.8,71,30.04,10.0,Calm,Calm,-,N/A,,Clear,0,2012-10-15 07:15:00
3:15 AM,51.8,42.8,71,30.04,10.0,Calm,Calm,-,N/A,,Clear,0,2012-10-15 08:15:00
3:55 AM,48.2,42.8,82,30.04,10.0,Calm,Calm,-,N/A,,Clear,0,2012-10-15 08:55:00
5:15 AM,46.4,41.0,81,30.04,10.0,Calm,Calm,-,N/A,,Clear,0,2012-10-15 10:15:00
5:35 AM,46.4,41.0,81,30.04,10.0,Calm,Calm,-,N/A,,Clear,0,2012-10-15 10:35:00
5:55 AM,46.4,39.2,76,30.04,10.0,Calm,Calm,-,N/A,,Clear,0,2012-10-15 10:55:00
6:16 AM,46.4,39.2,76,30.04,10.0,Calm,Calm,-,N/A,,Clear,0,2012-10-15 11:16:00
6:35 AM,46.4,41.0,81,30.04,10.0,Calm,Calm,-,N/A,,Clear,0,2012-10-15 11:35:00
7:35 AM,44.6,39.2,81,30.05,10.0,Calm,Calm,-,N/A,,Clear,0,2012-10-15 12:35:00
7:55 AM,46.4,41.0,81,30.06,10.0,Calm,Calm,-,N/A,,Clear,0,2012-10-15 12:55:00
8:35 AM,50.0,44.6,82,30.07,10.0,Calm,Calm,-,N/A,,Clear,0,2012-10-15 13:35:00
8:55 AM,51.8,44.6,76,30.07,10.0,Calm,Calm,-,N/A,,Clear,0,2012-10-15 13:55:00
9:15 AM,53.6,44.6,72,30.07,10.0,Calm,Calm,-,N/A,,Clear,0,2012-10-15 14:15:00
9:55 AM,59.0,48.2,67,30.08,10.0,Calm,Calm,-,N/A,,Clear,0,2012-10-15 14:55:00
10:35 AM,64.4,48.2,56,30.07,10.0,Calm,Calm,-,N/A,,Clear,0,2012-10-15 15:35:00
10:55 AM,66.2,48.2,52,30.06,10.0,Calm,Calm,-,N/A,,Clear,0,2012-10-15 15:55:00
11:15 AM,69.8,48.2,46,30.06,10.0,Calm,Calm,-,N/A,,Clear,0,2012-10-15 16:15:00
11:36 AM,71.6,48.2,43,30.05,10.0,SSW,3.5,-,N/A,,Clear,210,2012-10-15 16:36:00
11:55 AM,73.4,48.2,41,30.04,10.0,SSE,3.5,-,N/A,,Clear,150,2012-10-15 16:55:00
12:15 PM,73.4,50.0,44,30.03,10.0,ESE,5.8,-,N/A,,Clear,120,2012-10-15 17:15:00
12:55 PM,75.2,48.2,38,30.02,10.0,Calm,Calm,-,N/A,,Clear,0,2012-10-15 17:55:00
1:15 PM,78.8,44.6,30,30.01,10.0,WNW,5.8,-,N/A,,Clear,290,2012-10-15 18:15:00
1:55 PM,80.6,46.4,30,29.98,10.0,West,12.7,17.3,N/A,,Clear,270,2012-10-15 18:55:00
2:15 PM,80.6,46.4,30,29.98,10.0,WNW,11.5,18.4,N/A,,Clear,300,2012-10-15 19:15:00
2:35 PM,80.6,44.6,28,29.98,10.0,WNW,9.2,-,N/A,,Clear,300,2012-10-15 19:35:00
2:56 PM,80.6,46.4,30,29.97,10.0,NW,6.9,-,N/A,,Clear,320,2012-10-15 19:56:00
4:15 PM,80.6,44.6,28,29.95,10.0,West,6.9,-,N/A,,Clear,260,2012-10-15 21:15:00
4:56 PM,80.6,46.4,30,29.94,10.0,North,5.8,-,N/A,,Clear,360,2012-10-15 21:56:00
5:15 PM,78.8,46.4,32,29.94,10.0,North,4.6,-,N/A,,Clear,360,2012-10-15 22:15:00
6:55 PM,69.8,51.8,53,29.94,10.0,Calm,Calm,-,N/A,,Clear,0,2012-10-15 23:55:00
7:35 PM,66.2,50.0,56,29.93,10.0,Calm,Calm,-,N/A,,Clear,0,2012-10-16 00:35:00
7:55 PM,62.6,50.0,63,29.94,10.0,Calm,Calm,-,N/A,,Clear,0,2012-10-16 00:55:00
8:15 PM,62.6,48.2,59,29.95,10.0,Calm,Calm,-,N/A,,Clear,0,2012-10-16 01:15:00
8:55 PM,60.8,48.2,63,29.95,10.0,SW,3.5,-,N/A,,Clear,220,2012-10-16 01:55:00
9:15 PM,60.8,48.2,63,29.95,10.0,Calm,Calm,-,N/A,,Clear,0,2012-10-16 02:15:00
9:35 PM,62.6,46.4,55,29.95,10.0,Calm,Calm,-,N/A,,Clear,0,2012-10-16 02:35:00
9:55 PM,62.6,46.4,55,29.95,10.0,Calm,Calm,-,N/A,,Clear,0,2012-10-16 02:55:00
10:15 PM,62.6,46.4,55,29.95,10.0,Calm,Calm,-,N/A,,Clear,0,2012-10-16 03:15:00
10:35 PM,62.6,46.4,55,29.95,10.0,Calm,Calm,-,N/A,,Clear,0,2012-10-16 03:35:00
11:15 PM,57.2,46.4,67,29.95,10.0,Calm,Calm,-,N/A,,Clear,0,2012-10-16 04:15:00
11:55 PM,55.4,46.4,72,29.95,10.0,Calm,Calm,-,N/A,,Clear,0,2012-10-16 04:55:00